星链-34373 (STARLINK-34373)

导读

STARLINK-34373是美国SpaceX星链计划的卫星,于2025年7月26日发射,归属星链互联网星座组网卫星。星链项目旨在构建全球覆盖的低轨卫星互联网,为全球偏远地区、海洋空中等场景提供高速网络接入服务,该卫星的入轨进一步扩充了星链星座的规模,提升星座网络覆盖能力与服务容量。

Basic Information
目录编号:
64944
目录名称:
STARLINK-34373
国际标识:
2025-158N
轨道中心:
EARTH
卫星名称:
星链-34373
卫星全名:
星链-34373 (STARLINK-34373)
卫星状态:
在轨 (已飞行405 天)
发射日期:
2025-07-26 UTC
国别 :
美国 (US)
星等 :
--
Orbit Information
数据来源 国际轨道数据 AOE轨道数据
星历时间 2026-09-04T09:09:49+0800
17小时前
查看轨道信息
2026-09-02T09:00:00+0800
2天前
查看轨道信息
半长轴 6911.488km 6912.704km
偏心率 0.0012109 0.000173
轨道倾角 97.284° 97.285°
近地点辐角 243.608° 69.226°
升交点赤经 105.716° 103.807°
平近点角 116.391° 184.037°
近地点 524.981km 533.371km
远地点 541.721km 535.763km
周期 95.305分钟 95.330分钟
每日圈数 15.10934 15.105351
Detailed Information
固有亮度:
5
最大亮度:
2.5
卫星平台:
Starlink V1.0
覆盖范围:
全球
运营商:
太空探索技术公司
运营商所在国:
美国
制造商(研发单位):
太空探索技术公司
制造商所在国:
美国
使用方式:
暂无
Satellite Introduction
Starlink 计划是 SpaceX 推出的全球卫星互联网项目,通过发射低轨道卫星,为全球尤其是偏远地区提供高速、低延迟的互联网服务。自 2019 年起,Starlink 已部署数千颗卫星,旨在缩小全球数字鸿沟,推动互联网普及。该项目还为军事、航空等行业提供通信支持,带来广泛经济效益。
2D Orbit Map
3D Orbit Map
Orbit Altitude Analysis Chart
Orbit Inclination Analysis Chart
Orbit Comprehensive Analysis Chart
View Comprehensive Chart
Conjunction Data List
Event ID Objects TCA Miss Dist (km) Collision Risk Probability Collision Risk Index (CRI) Action
CDM_260831-172805-626706-494421
2026-08-31T
17:28:50+0000
1.961 km
极远距离
2.808117E-6 低风险 0.44
CDM_260902-015606-057906-494421
2026-09-02T
01:56:47+0000
2.165 km
极远距离
2.275508E-6 低风险 0.42